Regional Weather Roundup
Issued by NWS

Home | Current Version | Previous Version | Text Only | Print | Product List | Glossary On
Versions: 1 2 3 4 5 6 7 8 9 10 11 12 13 14 15 16 17 18 19 20 21 22 23 24 25 26 27
000
ASUS45 KBOI 180910
RWRID

IDAHO REGIONAL WEATHER ROUNDUP
NATIONAL WEATHER SERVICE BOISE ID
200 AM MST MON DEC 18 2017

NOTE: "FAIR" INDICATES FEW OR NO CLOUDS BELOW 12000 FEET
WITH NO SIGNIFICANT WEATHER AND/OR OBSTRUCTIONS TO VISIBILITY

IDZ012-014-181000-
SOUTHWEST IDAHO


CITY           SKY/WX    TMP DP  RH WIND       PRES   REMARKS
BOISE          CLOUDY    37  26  64 CALM      30.21F
CALDWELL       CLOUDY    36  24  62 SE7       30.24S WCI  30
MOUNTAIN HOME  CLOUDY    33  27  76 E12       30.22S WCI  25
$$

IDZ016-017-181000-
SOUTHCENTRAL IDAHO


CITY           SKY/WX    TMP DP  RH WIND       PRES   REMARKS
BURLEY         CLOUDY    30  22  72 S3        30.20F
JEROME         CLOUDY    30  23  75 NE5       30.22F WCI  25
TWIN FALLS     MOCLDY    28  22  78 S7        30.20F WCI  21
$$

IDZ019>023-181000-
SOUTHEAST IDAHO


CITY           SKY/WX    TMP DP  RH WIND       PRES   REMARKS
IDAHO FALLS    CLOUDY    23  20  88 CALM      30.22S
POCATELLO      CLOUDY    29  21  72 SW7       30.22F WCI  22
REXBURG        CLOUDY    22  19  89 NE3       30.21R
$$

IDZ006-010-011-018-031-032-181000-
CENTRAL IDAHO MOUNTAINS


CITY           SKY/WX    TMP DP  RH WIND       PRES   REMARKS
MCCALL         CLOUDY    27  25  92 S5        30.13S WCI  22
HAILEY         CLOUDY    23  19  86 NW7       30.20S WCI  15
STANLEY          N/A     23  16  74 CALM      30.12S
SALMON         CLOUDY    23  17  78 E3        30.11F
CHALLIS        CLOUDY    25  17  72 CALM      30.10S
$$

IDZ002-004-006-007-026-181000-
NORTHERN IDAHO


CITY           SKY/WX    TMP DP  RH WIND       PRES   REMARKS
LEWISTON       CLOUDY    43  32  65 S26G36    29.95F
LOWELL           N/A     32  30  92 CALM      30.10R
COEUR D`ALENE  CLOUDY    37  33  85 S5        29.88S WCI  33
MULLAN PASS    SNOW      29  26  89 W8        29.81S VSB 1/2 WCI  21
$$




USA.gov is the U.S. government's official web portal to all federal, state and local government web resources and services.